Regional Weather Roundup
Issued by NWS

Home | Current Version | Previous Version | Text Only | Print | Product List | Glossary On
Versions: 1 2 3 4 5 6 7 8 9 10 11 12 13 14 15 16 17 18 19 20 21 22 23 24 25 26 27 28 29 30 31 32 33 34 35 36 37 38 39 40 41 42 43 44 45 46 47 48 49 50
000
ASUS46 KSEW 280010
RWRWA

WASHINGTON REGIONAL WEATHER ROUNDUP
NATIONAL WEATHER SERVICE SEATTLE WA
400 PM PST MON FEB 27 2017

NOTE:"FAIR" INDICATES FEW OR NO CLOUDS BELOW 12,000 FEET WITH NO
SIGNIFICANT WEATHER AND/OR OBSTRUCTIONS TO VISIBILITY.

WAZ507-509-555>559-280100-
SEATTLE, TACOMA, EVERETT, AND VICINITY

CITY           SKY/WX    TMP DP  RH WIND       PRES   REMARKS
EVERETT        CLOUDY    36  34  92 NW3       29.68R
6HR MIN TEMP:  33; 6HR MAX TEMP:  38; 6HR PCP:  0.09;

BOEING FIELD   LGT SNOW  35  35 100 N8G24     29.70R VSB 3/4
6HR MIN TEMP:  36; 6HR MAX TEMP:  43; 6HR PCP:  0.08;

RENTON         CLOUDY    41  36  82 S10G18    29.68S
6HR MIN TEMP:  38; 6HR MAX TEMP:  43;

SEATAC AIRPORT CLOUDY    40  35  83 SW18      29.67S
6HR MIN TEMP:  37; 6HR MAX TEMP:  41; 6HR PCP:  0.04;

JBLM-MCCHORD   CLOUDY    39  39  99 SW16      29.70S
6HR MIN TEMP:  36; 6HR MAX TEMP:  41; 6HR PCP:  0.13;

PUYALLUP         N/A    N/A N/A N/A MISG        N/A
BREMERTON      PTSUNNY   43  36  75 NE12      29.70R
6HR MIN TEMP:  36; 6HR MAX TEMP:  45;

JBLM-FT LEWIS  LGT RAIN  39  39 100 S10       29.70R
6HR MIN TEMP:  37; 6HR MAX TEMP:  41; 6HR PCP:  0.07;

TACOMA NARROWS CLOUDY    40  35  83 SW15G30   29.68S
6HR MIN TEMP:  37; 6HR MAX TEMP:  41; 6HR PCP:  0.04;

$$

WAZ001-503-506-510-514-515-280100-
NORTH INTERIOR

CITY           SKY/WX    TMP DP  RH WIND       PRES   REMARKS
BELLINGHAM     SNOW      32  31  96 N3        29.70R VSB 1/2
6HR MIN TEMP:  30; 6HR MAX TEMP:  32; 6HR PCP:  0.03;

FRIDAY HARBOR  CLOUDY    36  33  89 VRB3      29.71S
6HR MIN TEMP:  34; 6HR MAX TEMP:  38; 6HR PCP:  0.27;

EASTSOUND      MIX PCPN  34  32  93 N6        29.69F
PORT ANGELES   CLOUDY    37  35  92 E5        29.70R
6HR MIN TEMP:  35; 6HR MAX TEMP:  40; 6HR PCP:  0.06;

EDIZ HOOK      MOCLDY    37  33  84 NE6       29.71R
6HR MIN TEMP:  37; 6HR MAX TEMP:  41;

PORT TOWNSEND    N/A    N/A N/A N/A NW10      29.70S
NAS WHIDBEY    LGT RAIN  38  32  79 N13       29.74R
6HR MIN TEMP:  36; 6HR MAX TEMP:  41; 6HR PCP:  0.03;

ARLINGTON      CLOUDY    37  28  70 CALM      29.71S
6HR MIN TEMP:  32; 6HR MAX TEMP:  39; 6HR PCP:  0.01;

BURLINGTON     PTSUNNY   34  32  93 NW8G15    29.70R FOG
$$

WAZ020-022-039-040-504-511-512-280100-
SOUTHWEST INTERIOR

CITY           SKY/WX    TMP DP  RH WIND       PRES   REMARKS
SHELTON        LGT RAIN  40  35  83 W13       29.68R
6HR MIN TEMP:  37; 6HR MAX TEMP:  44; 6HR PCP:  0.02;

OLYMPIA        LGT RAIN  40  37  89 SW9       29.72R
6HR MIN TEMP:  37; 6HR MAX TEMP:  42; 6HR PCP:  0.08;

CHEHALIS       PTSUNNY   41  37  87 SW9       29.73F
KELSO          LGT RAIN  42  37  82 S3        29.78F
6HR MIN TEMP:  36; 6HR MAX TEMP:  42; 6HR PCP:  0.11;

VANCOUVER      CLOUDY    44  38  79 SW6       29.78F
6HR MIN TEMP:  39; 6HR MAX TEMP:  44; 6HR PCP:  0.02;

SCAPPOOSE, OR  CLOUDY    43  38  82 VRB3      29.78S
6HR MIN TEMP:  38; 6HR MAX TEMP:  43; 6HR PCP:  0.05;

PORTLAND, OR   CLOUDY    44  35  70 SW12      29.79S
6HR MIN TEMP:  39; 6HR MAX TEMP:  44; 6HR PCP:  0.01;

$$

WAZ021-516-517-280100-
WASHINGTON COAST

CITY           SKY/WX    TMP DP  RH WIND       PRES   REMARKS
FORKS          LGT RAIN  43  32  65 W13       29.70S
6HR MIN TEMP:  37; 6HR MAX TEMP:  45; 6HR PCP: TRACE;

HOQUIAM        LGT RAIN  42  37  82 W16       29.73R
6HR MIN TEMP:  39; 6HR MAX TEMP:  45; 6HR PCP:  0.04;

ASTORIA, OR    CLOUDY    43  36  76 W13       29.77S
6HR MIN TEMP:  39; 6HR MAX TEMP:  44; 6HR PCP:  0.04;

$$

WAZ019-023-024-040-567>569-280100-
CASCADE MOUNTAINS AND COLUMBIA GORGE

CITY           SKY/WX    TMP DP  RH WIND       PRES   REMARKS
STAMPEDE PASS  NOT AVBL
TROUTDALE, OR  CLOUDY    44  36  73 SW13      29.79S
6HR MIN TEMP:  40; 6HR MAX TEMP:  45; 6HR PCP: TRACE;

THE DALLES, OR PTSUNNY   41  34  76 NW14      29.73S
6HR MIN TEMP:  38; 6HR MAX TEMP:  46; 6HR PCP: TRACE;

$$

WAZ026-027-041>044-520-521-280100-
EAST SLOPES

CITY           SKY/WX    TMP DP  RH WIND       PRES   REMARKS
OMAK           CLOUDY    32  19  58 SW12      29.64F WCI  23
6HR MIN TEMP:  29; 6HR MAX TEMP:  33;

WENATCHEE      CLOUDY    33  24  69 E7        29.62S
6HR MIN TEMP:  27; 6HR MAX TEMP:  33;

ELLENSBURG     SNOW      32  28  85 NW5       29.62S VSB 1/2
6HR MIN TEMP:  29; 6HR MAX TEMP:  37; 6HR PCP: TRACE;

YAKIMA         MOSUNNY   40  31  70 SW5       29.63F
6HR MIN TEMP:  32; 6HR MAX TEMP:  42;

SUNNYSIDE ARPT CLOUDY    40  30  66 S9        29.66S
6HR MIN TEMP:  35; 6HR MAX TEMP:  41;

$$

WAZ028-034-035-280100-
COLUMBIA BASIN

CITY           SKY/WX    TMP DP  RH WIND       PRES   REMARKS
EPHRATA        CLOUDY    36  25  64 S3        29.63F
6HR MIN TEMP:  30; 6HR MAX TEMP:  36;

MOSES LAKE     CLOUDY    37  26  64 S5        29.64S
6HR MIN TEMP:  31; 6HR MAX TEMP:  38;

PASCO          CLOUDY    41  31  67 SW14G26   29.72R
6HR MIN TEMP:  40; 6HR MAX TEMP:  46;

HERMISTON, OR  CLOUDY    43  32  65 SW15      29.70F
6HR MIN TEMP:  41; 6HR MAX TEMP:  46;

$$

WAZ036>038-280100-
NORTHEAST WASHINGTON

CITY           SKY/WX    TMP DP  RH WIND       PRES   REMARKS
SPOKANE GEIGER PTSUNNY   31  26  82 SW9       29.62S
6HR MIN TEMP:  27; 6HR MAX TEMP:  31; 6HR PCP:  0.02;

SPOKANE FELTS  LGT SNOW  33  29  85 NW3       29.64F FOG
6HR MIN TEMP:  30; 6HR MAX TEMP:  33; 6HR PCP:  0.03;

FAIRCHILD AFB  CLOUDY    30  29  95 SW9       29.61S
6HR MIN TEMP:  27; 6HR MAX TEMP:  30; 6HR PCP: TRACE;

COEURDALENE,ID LGT RAIN  33  28  81 SW3       29.63F
6HR MIN TEMP:  31; 6HR MAX TEMP:  35; 6HR PCP:  0.06;

DEER PARK      CLOUDY    30  25  81 SW8       29.63F
6HR MIN TEMP:  26; 6HR MAX TEMP:  31; 6HR PCP:  0.01;

$$

WAZ029>033-280100-
SOUTHEAST WASHINGTON

CITY           SKY/WX    TMP DP  RH WIND       PRES   REMARKS
PULLMAN        LGT SNOW  31  25  78 W18G30    29.66S VSB 3/4 WCI  19
6HR MIN TEMP:  29; 6HR MAX TEMP:  33; 6HR PCP: TRACE;

LEWISTON, ID   CLOUDY    36  29  75 SE6       29.69S
6HR MIN TEMP:  32; 6HR MAX TEMP:  37; 6HR PCP:  0.01;

WALLA WALLA    CLOUDY    38  32  79 S17       29.70F
6HR MIN TEMP:  36; 6HR MAX TEMP:  41; 6HR PCP: TRACE;

PENDLETON, OR  CLOUDY    37  33  85 SE6       29.69F
6HR MIN TEMP:  32; 6HR MAX TEMP:  41; 6HR PCP:  0.02;

$$



USA.gov is the U.S. government's official web portal to all federal, state and local government web resources and services.